This demonstration page uses our WeatherBlox Daily Observations layout. Learn more.

Left ArrowRight Arrow

36.17497, -115.13722

Hourly Observations for October 5, 2021

Temp ( °F °C ) Dew Point ( °F °C ) Humidity (%) Winds ( mph kmh ) Pressure ( in mb ) Visibility ( mi km ) Precip ( " mm )
12:53 am 00:53 Clear 73 22.8 39 3.9 29 29 N N/A 29.93 1014 10 16 N/A
1:53 am 01:53 Clear 71 21.7 40 4.4 32 32 NW 6 9 29.92 1013 10 16 N/A
2:53 am 02:53 Mostly Cloudy 73 22.8 40 4.4 30 30 N N/A 29.91 1013 10 16 0.00 0.00
3:53 am 03:53 Partly Cloudy 72 22.2 40 4.4 31 31 N N/A 29.90 1013 10 16 N/A
4:53 am 04:53 Mostly Clear 72 22.2 41 5 33 33 NNW 5 7 29.91 1013 10 16 N/A
5:53 am 05:53 Partly Cloudy 71 21.7 38 3.3 30 30 NNW 5 7 29.91 1013 10 16 N/A
6:53 am 06:53 Mostly Cloudy 71 21.7 38 3.3 30 30 NW 5 7 29.93 1013 10 16 N/A
7:53 am 07:53 Cloudy 75 23.9 40 4.4 28 28 W 6 9 29.96 1014 10 16 N/A
8:53 am 08:53 Mostly Cloudy 77 25 47 8.3 35 35 N N/A 29.97 1015 10 16 N/A
9:22 am 09:22 Partly Cloudy 75 23.9 52 11.1 45 45 SSW 21 33 29.89 1012 10 16 N/A
9:53 am 09:53 Sunny 74 23.3 53 11.7 48 48 SW 13 20 29.99 1016 10 16 N/A
10:53 am 10:53 Sunny 79 26.1 50 10 36 36 N N/A 29.98 1015 10 16 N/A
11:53 am 11:53 Sunny 81 27.2 50 10 34 34 S 9 15 29.98 1015 10 16 N/A
12:53 pm 12:53 Mostly Cloudy 79 26.1 50 10 36 36 S 10 17 29.97 1015 10 16 N/A
1:53 pm 13:53 Partly Cloudy 80 26.7 51 10.6 37 37 SE 9 15 29.94 1014 10 16 N/A
2:53 pm 14:53 Sunny 79 26.1 51 10.6 38 38 SE 14 22 29.93 1014 10 16 N/A
3:53 pm 15:53 Sunny 79 26.1 49 9.4 35 35 ESE 12 19 29.91 1013 10 16 N/A
4:53 pm 16:53 Sunny 78 25.6 46 7.8 32 32 E 13 20 29.92 1013 10 16 N/A
5:53 pm 17:53 Sunny 76 24.4 46 7.8 35 35 E 8 13 29.92 1013 10 16 N/A
6:53 pm 18:53 Clear 74 23.3 46 7.8 37 37 ENE 6 9 29.93 1014 10 16 N/A
7:53 pm 19:53 Clear 74 23.3 47 8.3 38 38 NE 3 6 29.95 1014 10 16 N/A
8:53 pm 20:53 Partly Cloudy 72 22.2 47 8.3 41 41 ENE 3 6 29.96 1015 10 16 N/A
9:53 pm 21:53 Clear 72 22.2 48 8.9 43 43 N N/A 29.97 1015 10 16 N/A
10:53 pm 22:53 Mostly Clear 72 22.2 49 9.4 44 44 N N/A 29.97 1015 10 16 N/A
11:53 pm 23:53 Clear 72 22.2 49 9.4 44 44 SSW 3 6 29.97 1015 10 16 N/A

Powered by AerisWeather